Norwood, MA

2:23 AM EDT on June 24, 2018 (GMT -0400)
Norwood Memorial

Weather History for KOWD - April, 2013

Change the Weather History Date:

Thursday, April 4, 2013

  Actual Average Record
Temperature  
Mean Temperature 42 °F -  
Max Temperature 57 °F 50 °F 66 °F (2012)
Min Temperature 28 °F 32 °F 21 °F (2016)
Degree Days  
Heating Degree Days 24    
Moisture  
Dew Point 16 °F    
Average Humidity 39    
Maximum Humidity 65    
Minimum Humidity 17    
Precipitation  
Precipitation 0.00 in - - ()
Sea Level Pressure  
Sea Level Pressure 30.18 in    
Wind  
Wind Speed 9 mph (WSW)    
Max Wind Speed 14 mph    
Max Gust Speed 20 mph    
Visibility 10 miles    
Events      
Averages and records for this station are not official NWS values.
T = Trace of Precipitation, MM = Missing Value Source: NWS Daily Summary

Daily Weather History Graph

Daily Weather History Graph

Search for Another Location

Airport or City:

Astronomy

Apr. 04, 2013 Rise Set
Actual Time 6:21 AM EDT 7:14 PM EDT
Civil Twilight 5:53 AM EDT 7:42 PM EDT
Nautical Twilight 5:19 AM EDT 8:16 PM EDT
Astronomical Twilight 4:44 AM EDT 8:51 PM EDT
Moon 2:52 AM EDT (4/4) 1:23 PM EDT (4/4)
Length of Visible Light 13h 49m
Length of Day
12h 52m
Waning Crescent, 34% of the Moon is Illuminated
Apr 4
Waning Crescent
Apr 10
New
Apr 18
First Quarter
Apr 25
Full
May 2
Last Quarter

Hourly Weather History & Observations

Time (EDT) Temp. Windchill Dew Point Humidity Pressure Visibility Wind Dir Wind Speed Gust Speed Precip Events Conditions
12:53 AM 33.1 °F 24.4 °F 14.0 °F 46% 30.19 in 10.0 mi West 11.5 mph - N/A   Clear
1:53 AM 33.1 °F 25.5 °F 14.0 °F 46% 30.20 in 10.0 mi West 9.2 mph - N/A   Clear
2:53 AM 32.0 °F 25.6 °F 14.0 °F 48% 30.21 in 10.0 mi West 6.9 mph - N/A   Clear
3:53 AM 30.9 °F 24.3 °F 15.1 °F 52% 30.20 in 10.0 mi WNW 6.9 mph - N/A   Clear
4:53 AM 30.0 °F 25.2 °F 15.1 °F 54% 30.22 in 10.0 mi West 4.6 mph - N/A   Clear
5:53 AM 28.9 °F 22.8 °F 15.1 °F 56% 30.25 in 10.0 mi West 5.8 mph - N/A   Clear
6:53 AM 28.9 °F 21.9 °F 16.0 °F 58% 30.29 in 10.0 mi WSW 6.9 mph - N/A   Clear
7:53 AM 34.0 °F 26.6 °F 17.1 °F 50% 30.31 in 10.0 mi West 9.2 mph - N/A   Clear
8:53 AM 37.0 °F 30.4 °F 16.0 °F 42% 30.30 in 10.0 mi WNW 9.2 mph - N/A   Clear
9:53 AM 41.0 °F 33.5 °F 12.9 °F 32% 30.30 in 10.0 mi WNW 13.8 mph 19.6 mph N/A   Clear
10:53 AM 44.1 °F 40.8 °F 12.9 °F 28% 30.27 in 10.0 mi Variable 5.8 mph - N/A   Clear
11:53 AM 46.0 °F 42.5 °F 12.9 °F 26% 30.25 in 10.0 mi Variable 6.9 mph - N/A   Clear
12:53 PM 50.0 °F - 10.0 °F 20% 30.22 in 10.0 mi West 6.9 mph 18.4 mph N/A   Clear
1:53 PM 53.1 °F - 10.9 °F 19% 30.19 in 10.0 mi WSW 10.4 mph 16.1 mph N/A   Clear
2:53 PM 55.0 °F - 10.9 °F 17% 30.15 in 10.0 mi SW 12.7 mph 18.4 mph N/A   Clear
3:53 PM 55.9 °F - 12.0 °F 18% 30.12 in 10.0 mi SW 10.4 mph - N/A   Clear
4:53 PM 55.9 °F - 12.9 °F 18% 30.09 in 10.0 mi SW 8.1 mph - N/A   Clear
5:53 PM 55.0 °F - 19.9 °F 25% 30.09 in 10.0 mi SW 8.1 mph - N/A   Clear
6:53 PM 48.0 °F - 21.0 °F 34% 30.08 in 10.0 mi South 12.7 mph 19.6 mph N/A   Clear
7:53 PM 44.1 °F 39.5 °F 24.1 °F 45% 30.10 in 10.0 mi South 8.1 mph - N/A   Clear
8:53 PM 44.1 °F 38.6 °F 24.1 °F 45% 30.12 in 10.0 mi South 10.4 mph - N/A   Clear
9:53 PM 43.0 °F 37.2 °F 21.9 °F 43% 30.11 in 10.0 mi SSW 10.4 mph 18.4 mph N/A   Clear
10:53 PM 41.0 °F 36.4 °F 24.1 °F 51% 30.09 in 10.0 mi South 6.9 mph - N/A   Clear
11:53 PM 39.0 °F 33.4 °F 28.0 °F 65% 30.07 in 10.0 mi SSW 8.1 mph - N/A   Clear